Location: Unspecified
(50.7693°N, 0.0000°E)
Time: 20:36:10
(UTC+00:00)

deb Explorer IX - Pass Details

Date: 24 June 2019
Orbit: 540 x 1111 km, 38.8° (Epoch: 20 August)

Event Time Altitude Azimuth Distance (km) Brightness Sun altitude
Rises 17:52:28 0° 265° (W) 3,934 ? 19.5°
Reaches altitude 10° 17:56:23 10° 246° (WSW) 2,961 ? 18.9°
Maximum altitude 18:00:40 17° 210° (SSW) 2,447 ? 18.2°
Drops below altitude 10° 18:04:48 10° 173° (S) 2,835 ? 17.6°
Sets 18:08:26 0° 154° (SSE) 3,694 ? 17.0°
